Location: Quedlinburg
(51.7921°N, 11.1414°E)
Time: 02:04:49
(UTC+02:00)

BEESAT - Pass Details

Date: 17 March 2026
Orbit: 683 x 693 km, 98.4° (Epoch: 13 April)

Event Time Altitude Azimuth Distance (km) Brightness Sun altitude
Rises 23:40:59 0° 17° (NNE) 3,065 ? -38.5°
Reaches altitude 10° 23:43:16 10° 21° (NNE) 2,144 ? -38.6°
Enters shadow 23:43:42 13° 22° (NNE) 1,974 ? -38.6°
